Location: French Creek State Gamelands
(40.1750°N, 75.7969°W)
Time: 21:52:42
(UTC-04:00)

ISS - All Passes

Search period start: 26 September 2016 00:00
Search period end: 06 October 2016 00:00
Orbit: 400 x 410 km, 51.6° (Epoch: 27 September)

Date Brightness Start Highest point End Pass type
(mag) Time Alt. Az. Time Alt. Az. Time Alt. Az.
26 Sep - 00:58:01 10° NNW 00:59:08 11° N 01:00:15 10° NNE night (unlit)
26 Sep - 02:34:10 10° NNW 02:36:38 19° NNE 02:39:06 10° ENE night (unlit)
26 Sep - 04:10:10 10° NW 04:13:28 80° SW 04:16:45 10° SE night (unlit)
26 Sep - 20:49:41 10° SSW 20:52:46 41° SE 20:55:53 10° ENE visible
26 Sep - 22:26:33 10° W 22:29:21 26° NNW 22:32:11 10° NE night (unlit)
27 Sep - 00:05:26 10° NNW 00:06:43 12° N 00:08:01 10° NNE night (unlit)
27 Sep - 01:42:20 10° NNW 01:44:19 15° NNE 01:46:17 10° NE night (unlit)
27 Sep - 03:18:08 10° NW 03:21:23 53° NE 03:24:36 10° ESE night (unlit)
27 Sep - 04:55:27 10° W 04:57:34 16° SW 04:59:41 10° S night (unlit)
27 Sep - 19:58:18 10° S 20:00:51 21° SE 20:03:24 10° E visible
27 Sep - 21:34:03 10° WSW 21:37:09 41° NNW 21:40:17 10° NE visible
27 Sep - 23:12:36 10° NW 23:14:20 13° NNW 23:16:03 10° NNE night (unlit)
28 Sep - 00:50:26 10° NNW 00:51:55 12° N 00:53:24 10° NE night (unlit)
28 Sep - 02:26:12 10° NW 02:29:12 31° NNE 02:32:12 10° E night (unlit)
28 Sep - 04:02:43 10° WNW 04:05:40 30° SW 04:08:36 10° SSE night (unlit)
28 Sep - 19:08:01 10° SE 19:08:58 11° SE 19:09:56 10° ESE daylight
28 Sep - 20:41:47 10° WSW 20:45:01 76° NW 20:48:17 10° NE visible
28 Sep - 22:19:45 10° WNW 22:21:57 17° NNW 22:24:10 10° NNE night (unlit)
28 Sep - 23:58:22 10° NNW 23:59:30 11° N 00:00:38 10° NNE night (unlit)
29 Sep - 01:34:19 10° NNW 01:36:57 21° NNE 01:39:34 10° ENE night (unlit)
29 Sep - 03:10:25 10° WNW 03:13:40 61° SW 03:16:55 10° SE night (unlit)
29 Sep - 19:49:46 10° SW 19:52:57 54° SE 19:56:09 10° ENE visible
29 Sep - 21:26:58 10° WNW 21:29:38 22° NNW 21:32:18 10° NNE visible
29 Sep - 23:05:54 10° NNW 23:07:03 11° N 23:08:12 10° NNE night (unlit)
30 Sep - 00:42:27 10° NNW 00:44:36 16° NNE 00:46:45 10° ENE night (unlit)
30 Sep - 02:18:18 10° NW 02:21:35 68° NE 02:24:51 10° ESE night (unlit)
30 Sep - 03:56:11 10° WSW 03:57:41 13° SW 03:59:10 10° SSW night (unlit)
30 Sep - 18:58:09 10° SSW 19:00:56 27° SE 19:03:46 10° ENE daylight
30 Sep - 20:34:21 10° W 20:37:21 34° NNW 20:40:23 10° NE visible
30 Sep - 22:13:04 10° NW 22:14:36 13° N 22:16:09 10° NNE visible
30 Sep - 23:50:34 10° NNW 23:52:12 13° N 23:53:51 10° NE night (unlit)
01 Oct - 01:26:19 10° NW 01:29:24 38° NNE 01:32:30 10° E night (unlit)
01 Oct - 03:03:03 10° WNW 03:05:45 24° SW 03:08:28 10° S night (unlit)
01 Oct - 18:07:13 10° SSE 18:09:01 14° SE 18:10:50 10° E daylight
01 Oct - 19:41:56 10° WSW 19:45:09 59° NW 19:48:24 10° NE visible
01 Oct - 21:20:09 10° NW 21:22:11 15° NNW 21:24:12 10° NNE visible
01 Oct - 22:58:32 10° NNW 22:59:45 12° N 23:00:58 10° NNE night (unlit)
02 Oct - 00:34:22 10° NNW 00:37:08 24° NNE 00:39:54 10° E night (unlit)
02 Oct - 02:10:35 10° WNW 02:13:45 47° SW 02:16:55 10° SSE night (unlit)
02 Oct - 18:49:47 10° SW 18:53:01 71° SE 18:56:16 10° ENE daylight
02 Oct - 20:27:18 10° WNW 20:29:47 20° NNW 20:32:18 10° NNE visible
02 Oct - 22:06:11 10° NNW 22:07:16 11° N 22:08:21 10° NNE visible
02 Oct - 23:42:27 10° NNW 23:44:47 18° NNE 23:47:06 10° ENE night (unlit)
03 Oct - 01:18:22 10° NW 01:21:40 86° NE 01:24:57 10° SE night (unlit)
03 Oct - 17:57:58 10° SSW 18:00:57 34° SE 18:03:57 10° ENE daylight
03 Oct - 19:34:34 10° W 19:37:28 29° NNW 19:40:22 10° NE visible
03 Oct - 21:13:25 10° NNW 21:14:46 12° N 21:16:08 10° NNE visible
03 Oct - 22:50:32 10° NNW 22:52:21 14° NNE 22:54:11 10° NE night (unlit)
04 Oct - 00:26:18 10° NW 00:29:28 46° NNE 00:32:39 10° ESE night (unlit)
04 Oct - 02:03:21 10° W 02:05:44 19° SW 02:08:07 10° S night (unlit)
04 Oct - 17:06:40 10° S 17:08:57 18° SE 17:11:15 10° E daylight
04 Oct - 18:42:03 10° WSW 18:45:12 47° NNW 18:48:22 10° NE daylight
04 Oct - 20:20:28 10° NW 20:22:17 14° NNW 20:24:08 10° NNE visible
04 Oct - 21:58:32 10° NNW 21:59:53 12° N 22:01:13 10° NNE visible
04 Oct - 23:34:18 10° NW 23:37:12 28° NNE 23:40:05 10° E night (unlit)
05 Oct - 01:10:40 10° WNW 01:13:43 36° SW 01:16:45 10° SSE night (unlit)
05 Oct - 17:49:44 10° SW 17:53:00 89° N 17:56:15 10° NE daylight
05 Oct - 19:27:32 10° WNW 19:29:51 18° NNW 19:32:11 10° NNE visible
05 Oct - 21:06:17 10° NNW 21:07:22 11° N 21:08:26 10° NNE visible
05 Oct - 22:42:21 10° NNW 22:44:50 20° NNE 22:47:19 10° ENE night (unlit)
